This demonstration page uses our WeatherBlox Daily Observations layout. Learn more.

Left ArrowRight Arrow

36.17497, -115.13722

Hourly Observations for January 18, 2021

Temp ( °F °C ) Dew Point ( °F °C ) Humidity (%) Winds ( mph kmh ) Pressure ( in mb ) Visibility ( mi km ) Precip ( " mm )
12:53 am 00:53 Clear 50 10 8 -13.3 18 18 N 3 6 29.98 1015 10 16 N/A
1:53 am 01:53 Clear 52 11.1 7 -13.9 16 16 WNW 9 15 29.98 1015 10 16 N/A
2:53 am 02:53 Clear 52 11.1 7 -13.9 16 16 NW 5 7 29.97 1015 10 16 N/A
3:53 am 03:53 Clear 55 12.8 13 -10.6 19 19 NNW 14 22 29.95 1014 10 16 N/A
4:53 am 04:53 Clear 59 15 18 -7.8 20 20 NW 13 20 29.95 1014 10 16 N/A
5:53 am 05:53 Clear 59 15 22 -5.6 24 24 NNW 14 22 29.96 1015 10 16 N/A
6:53 am 06:53 Sunny 59 15 24 -4.4 26 26 NW 16 26 29.98 1015 10 16 N/A
7:53 am 07:53 Sunny 59 15 24 -4.4 26 26 NNW 18 30 29.99 1016 10 16 N/A
8:53 am 08:53 Sunny 62 16.7 25 -3.9 24 24 NNW 18 30 30.00 1016 10 16 N/A
9:53 am 09:53 Sunny 64 17.8 24 -4.4 22 22 NNW 17 28 30.02 1017 10 16 N/A
10:53 am 10:53 Sunny 66 18.9 21 -6.1 18 18 NNW 22 35 29.98 1015 10 16 N/A
11:53 am 11:53 Sunny 69 20.6 19 -7.2 15 15 NNW 18 30 29.94 1014 10 16 N/A
12:53 pm 12:53 Sunny 69 20.6 15 -9.4 12 12 NNW 17 28 29.90 1013 10 16 N/A
1:53 pm 13:53 Sunny 69 20.6 12 -11.1 11 11 NW 17 28 29.87 1012 10 16 N/A
2:53 pm 14:53 Sunny 70 21.1 8 -13.3 9 9 NNW 16 26 29.86 1011 10 16 N/A
3:53 pm 15:53 Sunny 67 19.4 6 -14.4 9 9 NNW 15 24 29.85 1011 10 16 N/A
4:53 pm 16:53 Clear 66 18.9 5 -15 9 9 VRB 5 7 29.85 1011 10 16 N/A
5:53 pm 17:53 Clear 64 17.8 4 -15.6 9 9 N 5 7 29.85 1011 10 16 N/A
6:53 pm 18:53 Clear 59 15 5 -15 11 11 NNW 3 6 29.85 1011 10 16 N/A
7:53 pm 19:53 Clear 57 13.9 12 -11.1 17 17 ENE 8 13 29.86 1011 10 16 N/A
8:53 pm 20:53 Clear 57 13.9 15 -9.4 19 19 ESE 5 7 29.88 1012 10 16 N/A
9:53 pm 21:53 Clear 55 12.8 10 -12.2 16 16 VRB 7 11 29.88 1012 10 16 N/A
10:53 pm 22:53 Clear 53 11.7 15 -9.4 22 22 NNW 20 31 29.89 1012 10 16 N/A
11:53 pm 23:53 Clear 52 11.1 16 -8.9 24 24 NW 23 37 29.90 1012 10 16 N/A

Powered by AerisWeather